Tiempo cada hora Goianésia

Hoy, 23 Noviembre, Lunes

Tiempo Temperatura Precipitaciones Viento Presión Humedad
00:00 +24°C° 0.2 mm 1 mps 704 mmHg 89%
01:00 +23°C° 0.1 mm 1 mps 704 mmHg 89%
02:00 +23°C° 0.1 mm 1 mps 703 mmHg 90%
03:00 +23°C° 0 mm 1 mps 703 mmHg 92%
04:00 +23°C° 0 mm 1 mps 704 mmHg 91%
05:00 +23°C° 0 mm 1 mps 704 mmHg 91%
06:00 +23°C° 0 mm 1 mps 704 mmHg 90%
07:00 +25°C° 0.9 mm 2 mps 705 mmHg 87%
08:00 +26°C° 0.9 mm 2 mps 706 mmHg 83%
09:00 +27°C° 0 mm 3 mps 707 mmHg 76%
10:00 +27°C° 1.5 mm 3 mps 707 mmHg 79%
11:00 +27°C° 1.5 mm 3 mps 706 mmHg 81%
12:00 +26°C° 1.5 mm 3 mps 705 mmHg 84%
13:00 +27°C° 0.6 mm 3 mps 705 mmHg 81%
14:00 +27°C° 0.6 mm 3 mps 705 mmHg 79%
15:00 +27°C° 0.6 mm 3 mps 704 mmHg 76%
16:00 +27°C° 0.2 mm 3 mps 704 mmHg 79%
17:00 +26°C° 0.2 mm 2 mps 704 mmHg 81%
18:00 +25°C° 0.2 mm 2 mps 704 mmHg 84%
19:00 +25°C° 0 mm 2 mps 704 mmHg 85%
20:00 +24°C° 0 mm 2 mps 704 mmHg 85%
21:00 +24°C° 0 mm 1 mps 705 mmHg 86%
22:00 +24°C° 0 mm 1 mps 705 mmHg 87%
23:00 +24°C° 0 mm 1 mps 705 mmHg 87%

Mañana, 24 Noviembre, Martes

Tiempo Temperatura Precipitaciones Viento Presión Humedad
00:00 +23°C° 0 mm 1 mps 705 mmHg 88%
01:00 +23°C° 0.1 mm 1 mps 705 mmHg 89%
02:00 +23°C° 0.1 mm 1 mps 704 mmHg 90%
03:00 +22°C° 0.1 mm 1 mps 704 mmHg 91%
04:00 +21°C° 0.5 mm 2 mps 704 mmHg 92%
05:00 +21°C° 0.5 mm 2 mps 705 mmHg 94%
06:00 +21°C° 0.5 mm 2 mps 705 mmHg 95%
07:00 +22°C° 0.1 mm 3 mps 706 mmHg 89%
08:00 +23°C° 0.1 mm 4 mps 706 mmHg 83%
09:00 +26°C° 0.1 mm 5 mps 707 mmHg 78%
10:00 +27°C° 0.3 mm 5 mps 707 mmHg 72%
11:00 +28°C° 0.3 mm 5 mps 707 mmHg 67%
12:00 +30°C° 0.3 mm 5 mps 707 mmHg 62%
13:00 +30°C° 0.2 mm 4 mps 706 mmHg 60%
14:00 +31°C° 0.2 mm 3 mps 706 mmHg 57%
15:00 +31°C° 0.2 mm 2 mps 705 mmHg 54%
16:00 +30°C° 0 mm 2 mps 705 mmHg 60%
17:00 +29°C° 0 mm 2 mps 705 mmHg 65%
18:00 +28°C° 0 mm 1 mps 704 mmHg 71%
19:00 +26°C° 0 mm 1 mps 705 mmHg 73%
20:00 +25°C° 0 mm 1 mps 705 mmHg 75%
21:00 +24°C° 0 mm 1 mps 705 mmHg 77%
22:00 +23°C° 0 mm 1 mps 705 mmHg 80%
23:00 +23°C° 0 mm 1 mps 705 mmHg 83%

Pasado mañana, 25 Noviembre, Miércoles

Tiempo Temperatura Precipitaciones Viento Presión Humedad
00:00 +21°C° 0 mm 2 mps 705 mmHg 86%
01:00 +21°C° 0 mm 2 mps 704 mmHg 88%
02:00 +21°C° 0 mm 2 mps 704 mmHg 90%
03:00 +20°C° 0 mm 2 mps 703 mmHg 91%
04:00 +20°C° 0 mm 2 mps 704 mmHg 90%
05:00 +20°C° 0 mm 2 mps 704 mmHg 88%
06:00 +20°C° 0 mm 2 mps 705 mmHg 87%
07:00 +22°C° 0 mm 3 mps 705 mmHg 81%
08:00 +25°C° 0 mm 4 mps 706 mmHg 76%
09:00 +26°C° 0 mm 4 mps 707 mmHg 70%
10:00 +28°C° 0 mm 4 mps 707 mmHg 66%
11:00 +29°C° 0 mm 4 mps 707 mmHg 62%
12:00 +30°C° 0 mm 4 mps 707 mmHg 58%
13:00 +30°C° 0 mm 3 mps 706 mmHg 56%
14:00 +31°C° 0 mm 3 mps 706 mmHg 55%
15:00 +31°C° 0 mm 3 mps 705 mmHg 54%
16:00 +30°C° 0 mm 2 mps 704 mmHg 60%
17:00 +28°C° 0 mm 2 mps 704 mmHg 66%
18:00 +27°C° 0 mm 2 mps 704 mmHg 72%
19:00 +26°C° 0 mm 2 mps 704 mmHg 75%
20:00 +25°C° 0 mm 2 mps 704 mmHg 78%
21:00 +24°C° 0 mm 2 mps 705 mmHg 80%
22:00 +23°C° 0 mm 2 mps 705 mmHg 82%
23:00 +23°C° 0 mm 2 mps 705 mmHg 84%

26 Noviembre, Jueves

Tiempo Temperatura Precipitaciones Viento Presión Humedad
00:00 +21°C° 0 mm 2 mps 704 mmHg 86%
01:00 +21°C° 0 mm 2 mps 704 mmHg 86%
02:00 +21°C° 0 mm 2 mps 704 mmHg 87%
03:00 +21°C° 0 mm 2 mps 703 mmHg 87%
04:00 +20°C° 0 mm 2 mps 703 mmHg 88%
05:00 +20°C° 0 mm 2 mps 703 mmHg 88%
06:00 +20°C° 0 mm 2 mps 704 mmHg 89%
07:00 +22°C° 0 mm 3 mps 704 mmHg 82%
08:00 +25°C° 0 mm 3 mps 705 mmHg 75%
09:00 +27°C° 0 mm 4 mps 706 mmHg 68%
10:00 +28°C° 0.5 mm 4 mps 706 mmHg 67%
11:00 +28°C° 0.5 mm 3 mps 706 mmHg 66%
12:00 +29°C° 0.5 mm 3 mps 706 mmHg 64%
13:00 +29°C° 1.3 mm 2 mps 705 mmHg 64%
14:00 +29°C° 1.3 mm 2 mps 704 mmHg 63%
15:00 +29°C° 1.3 mm 2 mps 704 mmHg 62%
16:00 +28°C° 0.6 mm 2 mps 704 mmHg 67%
17:00 +27°C° 0.6 mm 1 mps 703 mmHg 72%
18:00 +26°C° 0.6 mm 1 mps 703 mmHg 77%
19:00 +25°C° 0.2 mm 1 mps 703 mmHg 81%
20:00 +24°C° 0.2 mm 2 mps 704 mmHg 85%
21:00 +21°C° 0.2 mm 2 mps 704 mmHg 88%
22:00 +21°C° 0 mm 2 mps 704 mmHg 89%
23:00 +22°C° 0 mm 1 mps 704 mmHg 89%

27 Noviembre, Viernes

Tiempo Temperatura Precipitaciones Viento Presión Humedad
00:00 +22°C° 0 mm 1 mps 704 mmHg 89%
01:00 +21°C° 0 mm 1 mps 703 mmHg 90%
02:00 +20°C° 0 mm 2 mps 703 mmHg 90%
03:00 +20°C° 0 mm 2 mps 703 mmHg 91%
04:00 +20°C° 0 mm 2 mps 703 mmHg 91%
05:00 +20°C° 0 mm 2 mps 703 mmHg 91%
06:00 +19°C° 0 mm 2 mps 703 mmHg 90%
07:00 +21°C° 0 mm 3 mps 704 mmHg 83%
08:00 +23°C° 0 mm 4 mps 705 mmHg 75%
09:00 +26°C° 0 mm 5 mps 705 mmHg 67%
10:00 +28°C° 0 mm 4 mps 705 mmHg 64%
11:00 +29°C° 0 mm 4 mps 705 mmHg 60%
12:00 +30°C° 0 mm 3 mps 706 mmHg 56%
13:00 +30°C° 0.1 mm 3 mps 705 mmHg 55%
14:00 +31°C° 0.1 mm 2 mps 704 mmHg 54%
15:00 +31°C° 0.1 mm 2 mps 704 mmHg 53%
16:00 +30°C° 0 mm 2 mps 704 mmHg 59%
17:00 +28°C° 0 mm 1 mps 703 mmHg 65%
18:00 +27°C° 0 mm 1 mps 703 mmHg 71%
19:00 +26°C° 0 mm 1 mps 703 mmHg 74%
20:00 +25°C° 0 mm 1 mps 704 mmHg 77%
21:00 +23°C° 0 mm 1 mps 704 mmHg 81%
22:00 +23°C° 0 mm 1 mps 704 mmHg 82%
23:00 +22°C° 0 mm 1 mps 704 mmHg 84%

28 Noviembre, Sábado

Tiempo Temperatura Precipitaciones Viento Presión Humedad
00:00 +22°C° 0 mm 1 mps 704 mmHg 85%
01:00 +22°C° 0 mm 1 mps 703 mmHg 86%
02:00 +22°C° 0 mm 1 mps 703 mmHg 86%
03:00 +21°C° 0 mm 1 mps 703 mmHg 87%
04:00 +21°C° 0 mm 1 mps 703 mmHg 87%
05:00 +20°C° 0 mm 2 mps 703 mmHg 88%
06:00 +20°C° 0 mm 2 mps 704 mmHg 88%
07:00 +23°C° 0 mm 2 mps 704 mmHg 80%
08:00 +25°C° 0 mm 3 mps 705 mmHg 72%
09:00 +27°C° 0 mm 4 mps 706 mmHg 65%
10:00 +28°C° 0 mm 4 mps 706 mmHg 61%
11:00 +30°C° 0 mm 4 mps 706 mmHg 57%
12:00 +31°C° 0 mm 3 mps 706 mmHg 53%
13:00 +31°C° 0 mm 3 mps 705 mmHg 52%
14:00 +33°C° 0 mm 3 mps 704 mmHg 51%
15:00 +33°C° 0 mm 3 mps 704 mmHg 51%
16:00 +30°C° 0 mm 3 mps 704 mmHg 57%
17:00 +29°C° 0 mm 3 mps 703 mmHg 63%
18:00 +28°C° 0 mm 2 mps 703 mmHg 69%
19:00 +27°C° 0 mm 2 mps 703 mmHg 72%
20:00 +25°C° 0 mm 2 mps 704 mmHg 76%
21:00 +24°C° 0 mm 2 mps 704 mmHg 79%
22:00 +24°C° 0 mm 2 mps 704 mmHg 81%
23:00 +24°C° 0 mm 2 mps 704 mmHg 82%
Mostrar más

Necesitamos Su Consentimiento

Meteoprog y nuestros Proveedores de Servicios pueden almacenar y acceder a sus datos personales como cookies, identificadores de dispositivo u otras tecnologías similares de su dispositivo y procesar dichos datos para personalizar contenido y anuncios, además de ofrecer funciones de redes sociales y analizar el tráfico.

  • Almacenar y/o acceder a información en su dispositivo

    Se puede almacenar o acceder a cookies, identificadores de dispositivo u otra información de su dispositivo para los fines anteriormente indicados.

  • Anuncios y contenido personalizados, medición de anuncios y contenido, percepciones del público, y desarrollo de productos

    Los anuncios y el contenido pueden personalizarse en base a su perfil. Se pueden añadir más datos para personalizar mejor los anuncios y contenidos. Se puede medir el rendimiento de los anuncios y contenidos. Se puede obtener la percepción sobre el público que ha visto los anuncios y contenidos. Dichos datos pueden usarse para desarrollar o mejorar la experiencia del usuario, sistemas y software.

Al hacer clic en ‘Estoy De Acuerdo’ usted permitirá el uso de las cookies, identificadores de dispositivo, balizas web u otras tecnologías similares indicadas. Su configuración puede cambiarse desde el navegador de su dispositivo.

Para ciertos fines, los intereses legítimos pueden ser considerados por encima del consentimiento. Puede leer más sobre ello en nuestra Política de Privacidad y Cookies.